When you browse on this site, cookies collect data to enhance your experience and personalize the content and advertising you see.
Visit our Privacy Policy to learn more. By continuing to use the site, you agree to this use of cookies and data.
  • în România
  • Lista ţărilor
  • Pe 7 zile
  • Temperatura apei
  • Hartă satelitară
  • Meteo pe hartă
  • Widget-uri
  • user-avatar
    Intrare

    Meteo pe oră la Arrecife

    Astăzi, 17 Iulie, Miercuri

    Timp Temperatura Precipitaţii Vânt Presiune Umiditate
    00:00 +18°C° 0 mm 0 m/s 678 mmHg 53%
    01:00 +18°C° 0 mm 0 m/s 677 mmHg 54%
    02:00 +17°C° 0 mm 0 m/s 677 mmHg 56%
    03:00 +17°C° 0 mm 0 m/s 676 mmHg 57%
    04:00 +17°C° 0 mm 0 m/s 677 mmHg 56%
    05:00 +18°C° 0 mm 0 m/s 677 mmHg 54%
    06:00 +18°C° 0 mm 0 m/s 677 mmHg 53%
    07:00 +21°C° 0 mm 0 m/s 678 mmHg 47%
    08:00 +25°C° 0 mm 1 m/s 678 mmHg 41%
    09:00 +27°C° 0 mm 1 m/s 679 mmHg 34%
    10:00 +29°C° 0 mm 2 m/s 679 mmHg 30%
    11:00 +31°C° 0 mm 2 m/s 679 mmHg 25%
    12:00 +33°C° 0 mm 3 m/s 680 mmHg 20%
    13:00 +34°C° 0 mm 4 m/s 679 mmHg 18%
    14:00 +34°C° 0 mm 5 m/s 679 mmHg 17%
    15:00 +35°C° 0 mm 5 m/s 679 mmHg 15%
    16:00 +34°C° 0 mm 6 m/s 679 mmHg 18%
    17:00 +32°C° 0 mm 6 m/s 678 mmHg 22%
    18:00 +30°C° 0 mm 6 m/s 678 mmHg 25%
    19:00 +28°C° 0 mm 4 m/s 677 mmHg 29%
    20:00 +25°C° 0 mm 3 m/s 677 mmHg 32%
    21:00 +23°C° 0 mm 1 m/s 677 mmHg 36%
    22:00 +22°C° 0 mm 1 m/s 677 mmHg 38%
    23:00 +21°C° 0 mm 1 m/s 677 mmHg 39%

    Mâine, 18 Iulie, Joi

    Timp Temperatura Precipitaţii Vânt Presiune Umiditate
    00:00 +20°C° 0 mm 1 m/s 677 mmHg 41%
    01:00 +20°C° 0 mm 1 m/s 676 mmHg 44%
    02:00 +19°C° 0 mm 1 m/s 676 mmHg 48%
    03:00 +16°C° 0 mm 0 m/s 676 mmHg 51%
    04:00 +17°C° 0 mm 0 m/s 676 mmHg 51%
    05:00 +17°C° 0 mm 0 m/s 676 mmHg 50%
    06:00 +18°C° 0 mm 0 m/s 677 mmHg 50%
    07:00 +23°C° 0 mm 1 m/s 677 mmHg 43%
    08:00 +25°C° 0 mm 1 m/s 678 mmHg 36%
    09:00 +28°C° 0 mm 1 m/s 679 mmHg 29%
    10:00 +30°C° 0 mm 2 m/s 679 mmHg 26%
    11:00 +31°C° 0 mm 2 m/s 679 mmHg 23%
    12:00 +34°C° 0 mm 2 m/s 680 mmHg 20%
    13:00 +34°C° 0 mm 2 m/s 679 mmHg 19%
    14:00 +35°C° 0 mm 2 m/s 679 mmHg 18%
    15:00 +36°C° 0 mm 2 m/s 679 mmHg 17%
    16:00 +35°C° 0 mm 2 m/s 679 mmHg 19%
    17:00 +35°C° 0 mm 3 m/s 679 mmHg 20%
    18:00 +34°C° 0 mm 3 m/s 678 mmHg 21%
    19:00 +30°C° 0 mm 3 m/s 678 mmHg 30%
    20:00 +27°C° 0 mm 2 m/s 678 mmHg 39%
    21:00 +24°C° 0 mm 1 m/s 677 mmHg 48%
    22:00 +23°C° 0 mm 1 m/s 677 mmHg 50%
    23:00 +22°C° 0 mm 1 m/s 677 mmHg 52%

    Poimâine, 19 Iulie, Vineri

    Timp Temperatura Precipitaţii Vânt Presiune Umiditate
    00:00 +20°C° 0 mm 0 m/s 677 mmHg 54%
    01:00 +19°C° 0 mm 0 m/s 677 mmHg 54%
    02:00 +19°C° 0 mm 0 m/s 677 mmHg 54%
    03:00 +19°C° 0 mm 0 m/s 677 mmHg 54%
    04:00 +21°C° 0 mm 1 m/s 677 mmHg 52%
    05:00 +22°C° 0 mm 1 m/s 677 mmHg 49%
    06:00 +23°C° 0 mm 1 m/s 677 mmHg 47%
    07:00 +25°C° 0 mm 2 m/s 678 mmHg 38%
    08:00 +28°C° 0 mm 2 m/s 679 mmHg 29%
    09:00 +31°C° 0 mm 3 m/s 679 mmHg 21%
    10:00 +34°C° 0 mm 3 m/s 680 mmHg 18%
    11:00 +35°C° 0 mm 3 m/s 680 mmHg 16%
    12:00 +37°C° 0 mm 4 m/s 680 mmHg 13%
    13:00 +37°C° 0 mm 4 m/s 680 mmHg 13%
    14:00 +38°C° 0 mm 4 m/s 679 mmHg 13%
    15:00 +38°C° 0 mm 4 m/s 679 mmHg 13%
    16:00 +37°C° 0 mm 5 m/s 678 mmHg 15%
    17:00 +36°C° 0 mm 5 m/s 678 mmHg 18%
    18:00 +35°C° 0 mm 5 m/s 677 mmHg 20%
    19:00 +32°C° 0 mm 4 m/s 677 mmHg 26%
    20:00 +28°C° 0 mm 3 m/s 677 mmHg 31%
    21:00 +25°C° 0 mm 2 m/s 677 mmHg 36%
    22:00 +25°C° 0 mm 2 m/s 677 mmHg 38%
    23:00 +24°C° 0 mm 2 m/s 677 mmHg 39%

    20 Iulie, Sâmbătă

    Timp Temperatura Precipitaţii Vânt Presiune Umiditate
    00:00 +24°C° 0 mm 2 m/s 677 mmHg 41%
    01:00 +23°C° 0 mm 2 m/s 677 mmHg 42%
    02:00 +21°C° 0 mm 2 m/s 676 mmHg 44%
    03:00 +21°C° 0 mm 2 m/s 676 mmHg 45%
    04:00 +22°C° 0 mm 1 m/s 676 mmHg 44%
    05:00 +22°C° 0 mm 1 m/s 676 mmHg 43%
    06:00 +23°C° 0 mm 1 m/s 676 mmHg 42%
    07:00 +26°C° 0 mm 1 m/s 677 mmHg 35%
    08:00 +29°C° 0 mm 2 m/s 678 mmHg 28%
    09:00 +32°C° 0 mm 2 m/s 679 mmHg 21%
    10:00 +35°C° 0 mm 3 m/s 679 mmHg 19%
    11:00 +36°C° 0 mm 3 m/s 680 mmHg 17%
    12:00 +38°C° 0 mm 3 m/s 680 mmHg 16%
    13:00 +40°C° 0 mm 4 m/s 680 mmHg 15%
    14:00 +40°C° 0 mm 4 m/s 680 mmHg 15%
    15:00 +41°C° 0 mm 4 m/s 679 mmHg 15%
    16:00 +40°C° 0 mm 4 m/s 679 mmHg 16%
    17:00 +39°C° 0 mm 3 m/s 679 mmHg 17%
    18:00 +38°C° 0 mm 3 m/s 679 mmHg 18%
    19:00 +35°C° 0 mm 3 m/s 679 mmHg 26%
    20:00 +31°C° 0 mm 3 m/s 679 mmHg 34%
    21:00 +27°C° 0 mm 2 m/s 679 mmHg 42%
    22:00 +26°C° 0 mm 2 m/s 679 mmHg 46%
    23:00 +25°C° 0 mm 1 m/s 679 mmHg 50%

    21 Iulie, Duminică

    Timp Temperatura Precipitaţii Vânt Presiune Umiditate
    00:00 +24°C° 0 mm 1 m/s 678 mmHg 54%
    01:00 +24°C° 0 mm 1 m/s 678 mmHg 55%
    02:00 +24°C° 0 mm 1 m/s 678 mmHg 55%
    03:00 +24°C° 0 mm 1 m/s 677 mmHg 56%
    04:00 +24°C° 0 mm 1 m/s 678 mmHg 55%
    05:00 +24°C° 0 mm 1 m/s 678 mmHg 53%
    06:00 +23°C° 0 mm 0 m/s 679 mmHg 52%
    07:00 +28°C° 0 mm 1 m/s 679 mmHg 43%
    08:00 +30°C° 0 mm 2 m/s 680 mmHg 35%
    09:00 +34°C° 0 mm 2 m/s 681 mmHg 26%
    10:00 +36°C° 0 mm 3 m/s 681 mmHg 23%
    11:00 +38°C° 0 mm 3 m/s 682 mmHg 20%
    12:00 +40°C° 0 mm 4 m/s 682 mmHg 17%
    13:00 +36°C° 0.5 mm 4 m/s 681 mmHg 24%
    14:00 +33°C° 0.5 mm 5 m/s 680 mmHg 32%
    15:00 +28°C° 0.5 mm 6 m/s 679 mmHg 40%
    16:00 +29°C° 0.2 mm 5 m/s 679 mmHg 40%
    17:00 +29°C° 0.2 mm 5 m/s 679 mmHg 39%
    18:00 +29°C° 0.2 mm 4 m/s 679 mmHg 39%
    19:00 +28°C° 0 mm 3 m/s 680 mmHg 41%
    20:00 +26°C° 0 mm 3 m/s 680 mmHg 44%
    21:00 +25°C° 0 mm 2 m/s 680 mmHg 46%
    22:00 +25°C° 0 mm 1 m/s 680 mmHg 49%
    23:00 +24°C° 0 mm 1 m/s 680 mmHg 51%

    22 Iulie, Luni

    Timp Temperatura Precipitaţii Vânt Presiune Umiditate
    00:00 +24°C° 0 mm 1 m/s 680 mmHg 54%
    01:00 +23°C° 0 mm 1 m/s 679 mmHg 55%
    02:00 +23°C° 0 mm 1 m/s 679 mmHg 56%
    03:00 +22°C° 0 mm 1 m/s 678 mmHg 58%
    04:00 +23°C° 0 mm 1 m/s 679 mmHg 57%
    05:00 +23°C° 0 mm 1 m/s 679 mmHg 56%
    06:00 +24°C° 0 mm 1 m/s 679 mmHg 55%
    07:00 +26°C° 0 mm 1 m/s 680 mmHg 47%
    08:00 +29°C° 0 mm 1 m/s 681 mmHg 39%
    09:00 +31°C° 0 mm 1 m/s 681 mmHg 31%
    10:00 +34°C° 0 mm 2 m/s 682 mmHg 27%
    11:00 +36°C° 0 mm 3 m/s 682 mmHg 23%
    12:00 +37°C° 0 mm 4 m/s 682 mmHg 19%
    13:00 +38°C° 0 mm 4 m/s 682 mmHg 18%
    14:00 +39°C° 0 mm 5 m/s 681 mmHg 17%
    15:00 +39°C° 0 mm 5 m/s 681 mmHg 16%
    16:00 +37°C° 0 mm 5 m/s 681 mmHg 18%
    17:00 +36°C° 0 mm 5 m/s 680 mmHg 19%
    18:00 +36°C° 0 mm 5 m/s 680 mmHg 20%
    19:00 +33°C° 0 mm 3 m/s 680 mmHg 27%
    20:00 +29°C° 0 mm 2 m/s 679 mmHg 33%
    21:00 +26°C° 0 mm 1 m/s 679 mmHg 39%
    22:00 +25°C° 0 mm 1 m/s 679 mmHg 42%
    23:00 +23°C° 0 mm 0 m/s 679 mmHg 45%
    Arată mai mult